Location: Mountain_View
(35.6670°N, 81.4000°W)
Time: 08:56:13
(UTC-05:00)

LightSail 2 - Pass Details

Date: 19 November 2019
Orbit: 696 x 730 km, 24.0° (Epoch: 06 December)

Event Time Altitude Azimuth Distance (km) Brightness Sun altitude
Exits shadow 04:30:47 14° 167° (SSE) 1,955 7.5 -31.2°
Drops below altitude 10° 04:32:03 10° 154° (SSE) 2,200 8.0 -31.0°
Sets 04:35:21 0° 134° (SE) 3,125 9.1 -30.3°
